Des Moines, IA

5:43 AM CDT on July 26, 2017 (GMT -0500)
Des Moines International

Weather History for KDSM - October, 2011

Change the Weather History Date:

Thursday, October 13, 2011

  Actual Average Record
Temperature  
Mean Temperature 60 °F 54 °F  
Max Temperature 70 °F 64 °F 88 °F (1975)
Min Temperature 50 °F 44 °F 20 °F (1917)
Degree Days  
Heating Degree Days 5 11  
Month to date heating degree days 28 121  
Since 1 July heating degree days 144 221  
Cooling Degree Days 0 0  
Month to date cooling degree days 38 11  
Year to date cooling degree days 1353 1063  
Growing Degree Days 10 (Base 50)    
Moisture  
Dew Point 44 °F    
Average Humidity 61    
Maximum Humidity 89    
Minimum Humidity 33    
Precipitation  
Precipitation 0.00 in 0.08 in 2.09 in (2012)
Month to date precipitation 1.19 1.11  
Year to date precipitation 31.84 30.88  
Snow  
Snow 0.00 in 0.00 in T in (1983)
Month to date snowfall 0.0 0.0  
Since 1 July snowfall 0.0 0.0  
Since 1 September snowfall 0.0 0.0  
Snow Depth 0.00 in    
Sea Level Pressure  
Sea Level Pressure 29.71 in    
Wind  
Wind Speed 14 mph (NW)    
Max Wind Speed 30 mph    
Max Gust Speed 38 mph    
Visibility 10 miles    
Events      
T = Trace of Precipitation, MM = Missing Value Source: NWS Daily Summary

Daily Weather History Graph

Daily Weather History Graph

Search for Another Location

Airport or City:

Trip Planner

Search our weather history database for the weather conditions in past years. The results will help you decide how hot, cold, wet, or windy it might be!

Date:

Astronomy

Oct. 13, 2011 Rise Set
Actual Time 7:24 AM CDT 6:37 PM CDT
Civil Twilight 6:56 AM CDT 7:04 PM CDT
Nautical Twilight 6:24 AM CDT 7:36 PM CDT
Astronomical Twilight 5:52 AM CDT 8:08 PM CDT
Moon 7:10 PM CDT (10/13) 8:58 AM CDT (10/13)
Length of Visible Light 12h 08m
Length of Day
11h 12m
Full, 98% of the Moon is Illuminated
Oct 13
Full
Oct 19
Last Quarter
Oct 26
New
Nov 2
First Quarter
Nov 10
Full

Hourly Weather History & Observations

Time (CDT) Temp. Dew Point Humidity Pressure Visibility Wind Dir Wind Speed Gust Speed Precip Events Conditions
12:54 AM 55.4 °F 51.8 °F 88% 29.69 in 10.0 mi WNW 9.2 mph - N/A   Partly Cloudy
1:54 AM 55.0 °F 51.1 °F 86% 29.69 in 10.0 mi NW 12.7 mph - N/A   Partly Cloudy
2:54 AM 54.0 °F 50.0 °F 86% 29.69 in 10.0 mi NW 12.7 mph - N/A   Clear
3:54 AM 52.0 °F 48.9 °F 89% 29.69 in 10.0 mi NW 6.9 mph - N/A   Clear
4:54 AM 52.0 °F 48.9 °F 89% 29.69 in 10.0 mi NW 9.2 mph - N/A   Clear
5:54 AM 52.0 °F 46.9 °F 83% 29.71 in 10.0 mi NW 9.2 mph - N/A   Clear
6:54 AM 50.0 °F 46.0 °F 86% 29.72 in 10.0 mi WNW 10.4 mph - N/A   Clear
7:54 AM 51.1 °F 46.0 °F 83% 29.73 in 10.0 mi WNW 8.1 mph - N/A   Clear
8:54 AM 54.0 °F 46.9 °F 77% 29.73 in 10.0 mi NW 12.7 mph - N/A   Clear
9:54 AM 57.0 °F 48.0 °F 72% 29.74 in 10.0 mi NW 17.3 mph - N/A   Partly Cloudy
10:54 AM 61.0 °F 48.9 °F 64% 29.75 in 10.0 mi NW 16.1 mph - N/A   Clear
11:54 AM 64.9 °F 48.9 °F 56% 29.73 in 10.0 mi NNW 18.4 mph 26.5 mph N/A   Partly Cloudy
12:54 PM 68.0 °F 46.0 °F 45% 29.73 in 10.0 mi NNW 17.3 mph 31.1 mph N/A   Partly Cloudy
1:54 PM 69.8 °F 44.6 °F 40% 29.71 in 10.0 mi NW 19.6 mph 31.1 mph N/A   Partly Cloudy
2:54 PM 70.0 °F 44.1 °F 39% 29.69 in 10.0 mi NW 15.0 mph 24.2 mph N/A   Partly Cloudy
3:54 PM 70.0 °F 42.1 °F 36% 29.69 in 10.0 mi WNW 25.3 mph 32.2 mph N/A   Partly Cloudy
4:54 PM 69.1 °F 39.9 °F 35% 29.68 in 10.0 mi NW 20.7 mph 28.8 mph N/A   Partly Cloudy
5:54 PM 68.0 °F 39.0 °F 35% 29.69 in 10.0 mi NW 15.0 mph - N/A   Partly Cloudy
6:54 PM 63.0 °F 37.0 °F 38% 29.70 in 10.0 mi NW 11.5 mph - N/A   Partly Cloudy
7:54 PM 62.1 °F 35.1 °F 37% 29.71 in 10.0 mi NW 13.8 mph - N/A   Scattered Clouds
8:54 PM 57.2 °F 35.6 °F 44% 29.73 in 10.0 mi WNW 8.1 mph - N/A   Partly Cloudy
9:54 PM 57.0 °F 37.0 °F 47% 29.75 in 10.0 mi NW 8.1 mph - N/A   Scattered Clouds
10:54 PM 55.0 °F 35.1 °F 47% 29.75 in 10.0 mi WNW 4.6 mph - N/A   Clear
11:54 PM 53.1 °F 36.0 °F 52% 29.75 in 10.0 mi NNW 6.9 mph - N/A   Clear